GIA1871 WIMM-OEMA

Flight info

Callsign GIA1871
Flight time 8h 19m
Altitude 38000
Route MAIMU1A MAIMU DCT MEMAK N563 REXOD L883 UMILA N569 TOKRA DCT ITRUX Y511 ELONU ELONU1E
Aircraft B77W/H-SDE1E2E3FGHIJ2J3J4J5M1RWXYZ/LB1D1

Departure

Time 2026-05-04 01:23
Airport Kualanamu International Airport (WIMM)

Arrival

Time 2026-05-04 09:42
Airport Prince Mohammad Bin Abdulaziz Airport (OEMA)
Time Latitude Longitude Altitude Speed Heading
2026-05-04 01:14 3.63834 98.88013 38 ft 2 kts 316°
2026-05-04 01:14 3.63850 98.87997 38 ft 4 kts 314°
2026-05-04 01:14 3.63874 98.87972 38 ft 5 kts 314°
2026-05-04 01:14 3.63911 98.87959 38 ft 6 kts 19°
2026-05-04 01:15 3.63954 98.87990 38 ft 8 kts 41°
2026-05-04 01:15 3.63999 98.88034 38 ft 9 kts 44°
2026-05-04 01:15 3.64052 98.88084 38 ft 11 kts 44°
2026-05-04 01:15 3.64116 98.88128 38 ft 11 kts 359°
2026-05-04 01:16 3.64189 98.88087 38 ft 12 kts 315°
2026-05-04 01:16 3.64252 98.88020 38 ft 13 kts 314°
2026-05-04 01:16 3.64278 98.87938 38 ft 13 kts 245°
2026-05-04 01:16 3.64213 98.87862 38 ft 14 kts 224°
2026-05-04 01:17 3.64138 98.87789 38 ft 15 kts 225°
2026-05-04 01:17 3.64063 98.87714 38 ft 15 kts 225°
2026-05-04 01:17 3.63986 98.87637 38 ft 15 kts 225°
2026-05-04 01:17 3.63905 98.87557 38 ft 16 kts 225°
2026-05-04 01:18 3.63824 98.87476 38 ft 16 kts 225°
2026-05-04 01:18 3.63742 98.87394 38 ft 16 kts 225°
2026-05-04 01:18 3.63659 98.87311 38 ft 17 kts 225°
2026-05-04 01:18 3.63635 98.87206 38 ft 16 kts 281°
2026-05-04 01:19 3.63586 98.87108 38 ft 16 kts 224°
2026-05-04 01:19 3.63500 98.87023 38 ft 17 kts 225°
2026-05-04 01:19 3.63409 98.86932 38 ft 18 kts 225°
2026-05-04 01:19 3.63315 98.86839 39 ft 19 kts 225°
2026-05-04 01:20 3.63219 98.86742 39 ft 20 kts 225°
2026-05-04 01:20 3.63118 98.86643 39 ft 20 kts 224°
2026-05-04 01:20 3.63020 98.86546 39 ft 19 kts 225°
2026-05-04 01:20 3.62922 98.86448 39 ft 20 kts 225°
2026-05-04 01:21 3.62822 98.86348 39 ft 20 kts 225°
2026-05-04 01:21 3.62717 98.86243 39 ft 21 kts 225°
2026-05-04 01:21 3.62614 98.86141 39 ft 20 kts 225°
2026-05-04 01:21 3.62526 98.86044 39 ft 17 kts 240°
2026-05-04 01:22 3.62538 98.85938 39 ft 15 kts 311°
2026-05-04 01:22 3.62627 98.85914 39 ft 13 kts 23°
2026-05-04 01:22 3.62696 98.85971 39 ft 13 kts 44°
2026-05-04 01:22 3.62850 98.86124 39 ft 59 kts 45°
2026-05-04 01:23 3.63343 98.86613 39 ft 137 kts 45°
2026-05-04 01:23 3.64182 98.87448 145 ft 194 kts 44°
2026-05-04 01:23 3.65152 98.88381 1031 ft 196 kts 41°
2026-05-04 01:23 3.66357 98.89040 1631 ft 207 kts 16°
2026-05-04 01:24 3.67846 98.89134 2088 ft 224 kts 349°
2026-05-04 01:24 3.69307 98.88489 2572 ft 242 kts 321°
2026-05-04 01:24 3.70457 98.87180 3115 ft 260 kts 307°
2026-05-04 01:24 3.71541 98.85687 3829 ft 270 kts 306°
2026-05-04 01:25 3.72627 98.84177 4701 ft 274 kts 306°
2026-05-04 01:25 3.73751 98.82613 5570 ft 277 kts 306°
2026-05-04 01:25 3.74876 98.81049 6407 ft 281 kts 306°
2026-05-04 01:25 3.76024 98.79452 7204 ft 286 kts 306°
2026-05-04 01:26 3.77183 98.77839 7995 ft 290 kts 306°
2026-05-04 01:26 3.78349 98.76216 8749 ft 294 kts 306°
2026-05-04 01:26 3.79547 98.74549 9522 ft 298 kts 307°
2026-05-04 01:26 3.80761 98.72859 10265 ft 303 kts 307°
2026-05-04 01:27 3.81945 98.71050 10710 ft 320 kts 298°
2026-05-04 01:27 3.82851 98.68924 11128 ft 338 kts 292°
2026-05-04 01:27 3.83710 98.66687 11597 ft 354 kts 292°
2026-05-04 01:27 3.84607 98.64349 12064 ft 369 kts 292°
2026-05-04 01:28 3.85554 98.61894 12514 ft 384 kts 292°
2026-05-04 01:28 3.86534 98.59363 12870 ft 399 kts 292°
2026-05-04 01:28 3.87547 98.56744 12907 ft 404 kts 292°
2026-05-04 01:28 3.88559 98.54127 12913 ft 404 kts 292°
2026-05-04 01:29 3.89577 98.51495 12914 ft 404 kts 292°
2026-05-04 01:29 3.90596 98.48862 12917 ft 404 kts 292°
2026-05-04 01:29 3.91605 98.46255 12920 ft 404 kts 292°
2026-05-04 01:29 3.92617 98.43639 12923 ft 405 kts 292°
2026-05-04 01:30 3.93634 98.41011 12917 ft 405 kts 292°
2026-05-04 01:30 3.94651 98.38384 12920 ft 405 kts 292°
2026-05-04 01:30 3.95670 98.35751 12922 ft 406 kts 292°
2026-05-04 01:30 3.96695 98.33100 12917 ft 405 kts 292°
2026-05-04 01:31 3.97712 98.30471 12919 ft 405 kts 292°
2026-05-04 01:31 3.98727 98.27850 12935 ft 412 kts 292°
2026-05-04 01:31 3.99777 98.25139 13626 ft 417 kts 292°
2026-05-04 01:31 4.00813 98.22462 14594 ft 414 kts 292°
2026-05-04 01:32 4.01860 98.19757 15316 ft 418 kts 292°
2026-05-04 01:32 4.02908 98.17052 15837 ft 427 kts 292°
2026-05-04 01:32 4.03989 98.14261 16441 ft 433 kts 292°
2026-05-04 01:32 4.05087 98.11423 17090 ft 438 kts 292°
2026-05-04 01:33 4.06185 98.08586 17722 ft 442 kts 292°
2026-05-04 01:33 4.07301 98.05701 18369 ft 445 kts 292°
2026-05-04 01:33 4.08413 98.02829 18990 ft 449 kts 292°
2026-05-04 01:33 4.09542 97.99909 19620 ft 452 kts 292°
2026-05-04 01:34 4.10697 97.96924 19905 ft 458 kts 292°
2026-05-04 01:34 4.11859 97.93925 20304 ft 465 kts 292°
2026-05-04 01:34 4.13012 97.90950 21099 ft 462 kts 292°
2026-05-04 01:34 4.14172 97.87957 21825 ft 462 kts 292°
2026-05-04 01:35 4.15335 97.84956 22321 ft 466 kts 291°
2026-05-04 01:35 4.16511 97.81920 22806 ft 471 kts 291°
2026-05-04 01:35 4.17701 97.78848 23338 ft 474 kts 292°
2026-05-04 01:35 4.18887 97.75786 23890 ft 477 kts 292°
2026-05-04 01:36 4.20098 97.72663 24418 ft 480 kts 292°
2026-05-04 01:36 4.21301 97.69559 24941 ft 483 kts 292°
2026-05-04 01:36 4.22516 97.66425 25460 ft 485 kts 292°
2026-05-04 01:36 4.23739 97.63270 25977 ft 488 kts 292°
2026-05-04 01:37 4.24959 97.60123 26483 ft 491 kts 292°
2026-05-04 01:37 4.26200 97.56921 26960 ft 494 kts 292°
2026-05-04 01:37 4.27444 97.53709 27441 ft 497 kts 292°
2026-05-04 01:37 4.28692 97.50487 27923 ft 499 kts 292°
2026-05-04 01:38 4.29948 97.47245 28374 ft 503 kts 292°
2026-05-04 01:38 4.31223 97.43951 28815 ft 506 kts 292°
2026-05-04 01:38 4.32496 97.40663 29273 ft 509 kts 292°
2026-05-04 01:38 4.33777 97.37356 29826 ft 510 kts 292°
2026-05-04 01:39 4.35055 97.34051 30519 ft 508 kts 292°
2026-05-04 01:39 4.36310 97.30808 31255 ft 504 kts 292°
2026-05-04 01:39 4.37578 97.27531 31917 ft 501 kts 292°
2026-05-04 01:39 4.38822 97.24309 32479 ft 500 kts 291°
2026-05-04 01:40 4.39806 97.20977 33026 ft 500 kts 282°
2026-05-04 01:40 4.40278 97.17512 33577 ft 500 kts 273°
2026-05-04 01:40 4.40220 97.14049 34148 ft 499 kts 265°
2026-05-04 01:40 4.39838 97.10642 34750 ft 497 kts 263°
2026-05-04 01:41 4.39414 97.07237 35334 ft 494 kts 263°
2026-05-04 01:41 4.38983 97.03808 35823 ft 493 kts 263°
2026-05-04 01:41 4.38557 97.00418 36214 ft 493 kts 263°
2026-05-04 01:41 4.38122 96.96960 36547 ft 494 kts 263°
2026-05-04 01:42 4.37685 96.93488 36901 ft 494 kts 263°
2026-05-04 01:42 4.37245 96.89990 37275 ft 493 kts 264°
2026-05-04 01:42 4.36810 96.86539 37614 ft 492 kts 263°
2026-05-04 01:42 4.36383 96.83145 37872 ft 493 kts 263°
2026-05-04 01:43 4.35951 96.79715 38119 ft 493 kts 264°
2026-05-04 01:43 4.36092 96.72881 38194 ft 492 kts 282°
2026-05-04 01:44 4.38232 96.66449 38161 ft 488 kts 295°
2026-05-04 01:44 4.41066 96.60229 38126 ft 488 kts 296°
2026-05-04 01:45 4.43908 96.54002 38106 ft 489 kts 296°
2026-05-04 01:45 4.48140 96.44716 38082 ft 489 kts 295°
2026-05-04 01:46 4.50958 96.38525 38062 ft 489 kts 295°
2026-05-04 01:46 4.53792 96.32296 38024 ft 489 kts 295°
2026-05-04 01:47 4.56615 96.26089 37993 ft 489 kts 295°
2026-05-04 01:47 4.59450 96.19853 38003 ft 488 kts 295°
2026-05-04 01:48 4.62281 96.13626 37998 ft 489 kts 295°
2026-05-04 01:48 4.65087 96.07450 38012 ft 488 kts 295°
2026-05-04 01:49 4.67890 96.01279 38013 ft 488 kts 295°
2026-05-04 01:49 4.70706 95.95079 38011 ft 489 kts 295°
2026-05-04 01:50 4.73532 95.88853 37997 ft 490 kts 295°
2026-05-04 01:50 4.76375 95.82590 38006 ft 488 kts 295°
2026-05-04 01:51 4.79184 95.76399 38000 ft 488 kts 295°
2026-05-04 01:51 4.81999 95.70194 38008 ft 488 kts 295°
2026-05-04 01:52 4.84821 95.63970 38010 ft 488 kts 295°
2026-05-04 01:52 4.87630 95.57774 38005 ft 488 kts 295°
2026-05-04 01:53 4.90466 95.51516 37989 ft 488 kts 295°
2026-05-04 01:53 4.93276 95.45314 37988 ft 488 kts 295°
2026-05-04 01:54 4.96101 95.39077 37969 ft 488 kts 295°
2026-05-04 01:54 4.98933 95.32823 37951 ft 489 kts 295°
2026-05-04 01:55 5.01736 95.26631 37939 ft 488 kts 295°
2026-05-04 01:55 5.04550 95.20415 37921 ft 489 kts 295°
2026-05-04 01:56 5.07367 95.14187 37915 ft 488 kts 295°
2026-05-04 01:56 5.10171 95.07989 37913 ft 488 kts 295°
2026-05-04 01:57 5.12976 95.01784 37915 ft 489 kts 295°
2026-05-04 01:57 5.15783 94.95574 37910 ft 487 kts 295°
2026-05-04 01:58 5.18577 94.89391 37911 ft 488 kts 295°
2026-05-04 01:58 5.21375 94.83196 37910 ft 486 kts 295°
2026-05-04 01:59 5.24150 94.77053 37911 ft 486 kts 295°
2026-05-04 01:59 5.26955 94.70840 37911 ft 486 kts 295°
2026-05-04 02:00 5.29727 94.64698 37911 ft 484 kts 295°
2026-05-04 02:00 5.32515 94.58519 37911 ft 485 kts 295°
2026-05-04 02:01 5.35299 94.52348 37911 ft 484 kts 295°
2026-05-04 02:01 5.38081 94.46178 37909 ft 484 kts 295°
2026-05-04 02:02 5.40856 94.40022 37906 ft 484 kts 295°
2026-05-04 02:02 5.43621 94.33884 37900 ft 483 kts 295°
2026-05-04 02:03 5.46376 94.27769 37898 ft 481 kts 295°
2026-05-04 02:03 5.49132 94.21649 37898 ft 480 kts 295°
2026-05-04 02:04 5.51898 94.15506 37897 ft 480 kts 295°
2026-05-04 02:04 5.54659 94.09371 37894 ft 480 kts 295°
2026-05-04 02:05 5.57413 94.03250 37890 ft 480 kts 295°
2026-05-04 02:05 5.60151 93.97160 37889 ft 479 kts 295°
2026-05-04 02:06 5.62897 93.91054 37889 ft 479 kts 295°
2026-05-04 02:06 5.65643 93.84944 37889 ft 479 kts 295°
2026-05-04 02:07 5.68380 93.78854 37889 ft 479 kts 295°
2026-05-04 02:07 5.71123 93.72748 37889 ft 479 kts 295°
2026-05-04 02:08 5.73861 93.66650 37889 ft 479 kts 295°
2026-05-04 02:08 5.76605 93.60537 37898 ft 479 kts 295°
2026-05-04 02:09 5.79351 93.54417 37909 ft 479 kts 295°
2026-05-04 02:09 5.82104 93.48279 37909 ft 478 kts 295°
2026-05-04 02:10 5.84837 93.42184 37909 ft 478 kts 295°
2026-05-04 02:10 5.87565 93.36099 37910 ft 479 kts 295°
2026-05-04 02:11 5.90329 93.29932 37908 ft 479 kts 295°
2026-05-04 02:11 5.93057 93.23843 37908 ft 479 kts 295°
2026-05-04 02:12 5.95812 93.17690 37908 ft 479 kts 295°
2026-05-04 02:12 5.98551 93.11571 37909 ft 479 kts 295°
2026-05-04 02:13 6.01305 93.05450 37909 ft 477 kts 295°
2026-05-04 02:13 6.04092 92.99348 37911 ft 479 kts 296°
2026-05-04 02:14 6.06876 92.93248 37909 ft 479 kts 295°
2026-05-04 02:14 6.09667 92.87129 37908 ft 480 kts 295°
2026-05-04 02:15 6.12451 92.81020 37912 ft 480 kts 295°
2026-05-04 02:15 6.15235 92.74906 37912 ft 480 kts 295°
2026-05-04 02:16 6.18013 92.68804 37910 ft 480 kts 295°
2026-05-04 02:16 6.20789 92.62707 37912 ft 480 kts 295°
2026-05-04 02:17 6.23566 92.56602 37912 ft 480 kts 295°
2026-05-04 02:17 6.26357 92.50465 37909 ft 481 kts 295°
2026-05-04 02:18 6.29137 92.44350 37910 ft 480 kts 295°
2026-05-04 02:18 6.31910 92.38248 37909 ft 482 kts 295°
2026-05-04 02:19 6.34694 92.32120 37902 ft 481 kts 295°
2026-05-04 02:19 6.37465 92.26019 37898 ft 481 kts 295°
2026-05-04 02:20 6.40254 92.19874 37897 ft 481 kts 295°
2026-05-04 02:20 6.43053 92.13706 37901 ft 479 kts 295°
2026-05-04 02:21 6.45820 92.07606 37899 ft 480 kts 295°
2026-05-04 02:21 6.48585 92.01508 37900 ft 481 kts 295°
2026-05-04 02:22 6.51369 91.95366 37898 ft 481 kts 295°
2026-05-04 02:22 6.54139 91.89253 37901 ft 482 kts 295°
2026-05-04 02:23 6.56918 91.83119 37899 ft 481 kts 295°
2026-05-04 02:23 6.59691 91.76994 37905 ft 481 kts 295°
2026-05-04 02:24 6.62455 91.70886 37912 ft 482 kts 295°
2026-05-04 02:24 6.65233 91.64746 37909 ft 482 kts 295°
2026-05-04 02:25 6.67998 91.58633 37908 ft 482 kts 295°
2026-05-04 02:25 6.70776 91.52488 37910 ft 483 kts 295°
2026-05-04 02:26 6.73553 91.46343 37911 ft 483 kts 295°
2026-05-04 02:26 6.76342 91.40166 37911 ft 481 kts 295°
2026-05-04 02:27 6.79121 91.34014 37911 ft 483 kts 294°
2026-05-04 02:27 6.81911 91.27832 37912 ft 482 kts 294°
2026-05-04 02:28 6.84694 91.21662 37910 ft 484 kts 294°
2026-05-04 02:28 6.87472 91.15505 37909 ft 482 kts 294°
2026-05-04 02:29 6.90248 91.09346 37912 ft 483 kts 294°
2026-05-04 02:29 6.93021 91.03192 37910 ft 482 kts 294°
2026-05-04 02:30 6.95810 90.97002 37910 ft 483 kts 294°
2026-05-04 02:30 6.98581 90.90847 37910 ft 482 kts 294°
2026-05-04 02:31 7.01351 90.84694 37908 ft 484 kts 294°
2026-05-04 02:31 7.04136 90.78503 37909 ft 484 kts 294°
2026-05-04 02:32 7.06926 90.72298 37911 ft 485 kts 294°
2026-05-04 02:32 7.09711 90.66103 37914 ft 486 kts 294°
2026-05-04 02:33 7.12484 90.59932 37908 ft 485 kts 294°
2026-05-04 02:33 7.15268 90.53735 37906 ft 484 kts 293°
2026-05-04 02:34 7.18044 90.47551 37911 ft 482 kts 293°
2026-05-04 02:34 7.20799 90.41412 37907 ft 483 kts 293°
2026-05-04 02:35 7.23571 90.35234 37908 ft 480 kts 293°
2026-05-04 02:35 7.26332 90.29075 37907 ft 481 kts 293°
2026-05-04 02:36 7.29078 90.22951 37909 ft 481 kts 293°
2026-05-04 02:36 7.31812 90.16847 37910 ft 478 kts 293°
2026-05-04 02:37 7.34540 90.10757 37908 ft 477 kts 293°
2026-05-04 02:37 7.37267 90.04664 37909 ft 477 kts 293°
2026-05-04 02:38 7.40006 89.98541 37910 ft 476 kts 293°
2026-05-04 02:38 7.42723 89.92467 37907 ft 476 kts 293°
2026-05-04 02:39 7.45439 89.86393 37908 ft 476 kts 293°
2026-05-04 02:39 7.48151 89.80325 37909 ft 475 kts 293°
2026-05-04 02:40 7.50884 89.74206 37909 ft 475 kts 293°
2026-05-04 02:40 7.53594 89.68136 37916 ft 474 kts 293°
2026-05-04 02:41 7.56301 89.62071 37921 ft 474 kts 293°
2026-05-04 02:41 7.59019 89.55978 37923 ft 474 kts 293°
2026-05-04 02:42 7.61713 89.49937 37923 ft 474 kts 293°
2026-05-04 02:42 7.64419 89.43867 37919 ft 474 kts 293°
2026-05-04 02:43 7.67112 89.37822 37916 ft 474 kts 293°
2026-05-04 02:43 7.69822 89.31741 37920 ft 474 kts 294°
2026-05-04 02:44 7.72561 89.25746 37922 ft 473 kts 294°
2026-05-04 02:44 7.75315 89.19724 37913 ft 473 kts 294°
2026-05-04 02:45 7.78076 89.13680 37910 ft 473 kts 294°
2026-05-04 02:45 7.80839 89.07624 37908 ft 474 kts 294°
2026-05-04 02:46 7.83582 89.01609 37910 ft 474 kts 294°
2026-05-04 02:46 7.86327 88.95586 37909 ft 473 kts 294°
2026-05-04 02:47 7.89065 88.89578 37910 ft 472 kts 294°
2026-05-04 02:47 7.91816 88.83534 37906 ft 472 kts 294°
2026-05-04 02:48 7.94561 88.77504 37909 ft 473 kts 294°
2026-05-04 02:48 7.97293 88.71498 37910 ft 473 kts 294°
2026-05-04 02:49 8.00043 88.65449 37912 ft 474 kts 294°
2026-05-04 02:49 8.02785 88.59418 37910 ft 472 kts 294°
2026-05-04 02:50 8.05522 88.53394 37909 ft 472 kts 294°
2026-05-04 02:50 8.08256 88.47372 37909 ft 472 kts 294°
2026-05-04 02:51 8.10988 88.41353 37909 ft 471 kts 294°
2026-05-04 02:51 8.13703 88.35367 37909 ft 471 kts 294°
2026-05-04 02:52 8.16429 88.29356 37913 ft 471 kts 293°
2026-05-04 02:52 8.19155 88.23341 37922 ft 471 kts 293°
2026-05-04 02:53 8.21888 88.17311 37933 ft 471 kts 293°
2026-05-04 02:53 8.24617 88.11283 37934 ft 470 kts 293°
2026-05-04 02:54 8.27334 88.05280 37932 ft 471 kts 293°
2026-05-04 02:54 8.30061 87.99253 37929 ft 471 kts 293°
2026-05-04 02:55 8.34144 87.90223 37931 ft 470 kts 293°
2026-05-04 02:56 8.36843 87.84248 37932 ft 471 kts 293°
2026-05-04 02:56 8.39573 87.78205 37932 ft 471 kts 293°
2026-05-04 02:57 8.42273 87.72224 37931 ft 470 kts 293°
2026-05-04 02:57 8.44990 87.66202 37920 ft 471 kts 294°
2026-05-04 02:58 8.47697 87.60201 37911 ft 470 kts 294°
2026-05-04 02:58 8.50399 87.54208 37903 ft 471 kts 294°
2026-05-04 02:59 8.53113 87.48185 37903 ft 470 kts 294°
2026-05-04 02:59 8.55830 87.42152 37902 ft 470 kts 294°
2026-05-04 03:00 8.58528 87.36158 37899 ft 470 kts 294°
2026-05-04 03:00 8.61231 87.30150 37906 ft 469 kts 294°
2026-05-04 03:01 8.63919 87.24173 37912 ft 469 kts 294°
2026-05-04 03:01 8.66618 87.18169 37910 ft 470 kts 294°
2026-05-04 03:02 8.69323 87.12147 37911 ft 470 kts 294°
2026-05-04 03:02 8.72031 87.06117 37911 ft 472 kts 294°
2026-05-04 03:03 8.74739 87.00084 37910 ft 471 kts 294°
2026-05-04 03:03 8.77438 86.94067 37910 ft 471 kts 294°
2026-05-04 03:04 8.80149 86.88023 37910 ft 473 kts 294°
2026-05-04 03:04 8.82867 86.81956 37909 ft 471 kts 294°
2026-05-04 03:05 8.85570 86.75923 37909 ft 473 kts 294°
2026-05-04 03:05 8.88279 86.69871 37909 ft 471 kts 294°
2026-05-04 03:06 8.90996 86.63800 37909 ft 472 kts 294°
2026-05-04 03:06 8.93709 86.57734 37909 ft 472 kts 294°
2026-05-04 03:07 8.96418 86.51674 37909 ft 472 kts 294°
2026-05-04 03:07 8.99116 86.45636 37908 ft 471 kts 294°
2026-05-04 03:08 9.01800 86.39625 37909 ft 471 kts 294°
2026-05-04 03:08 9.04488 86.33601 37909 ft 471 kts 294°
2026-05-04 03:09 9.07189 86.27547 37909 ft 471 kts 294°
2026-05-04 03:09 9.09885 86.21500 37909 ft 472 kts 294°
2026-05-04 03:10 9.12582 86.15449 37910 ft 473 kts 294°
2026-05-04 03:10 9.15276 86.09400 37910 ft 471 kts 294°
2026-05-04 03:11 9.17966 86.03359 37910 ft 470 kts 294°
2026-05-04 03:11 9.20659 85.97305 37908 ft 470 kts 294°
2026-05-04 03:12 9.23345 85.91265 37910 ft 471 kts 294°
2026-05-04 03:12 9.26021 85.85278 37908 ft 471 kts 295°
2026-05-04 03:13 9.28820 85.79261 37908 ft 472 kts 295°
2026-05-04 03:13 9.31617 85.73247 37906 ft 472 kts 295°
2026-05-04 03:14 9.34415 85.67222 37898 ft 471 kts 295°
2026-05-04 03:14 9.37203 85.61208 37894 ft 471 kts 295°
2026-05-04 03:15 9.39979 85.55216 37890 ft 473 kts 295°
2026-05-04 03:15 9.42772 85.49183 37891 ft 471 kts 295°
2026-05-04 03:16 9.45559 85.43160 37890 ft 473 kts 295°
2026-05-04 03:16 9.48360 85.37102 37889 ft 473 kts 295°
2026-05-04 03:17 9.51134 85.31100 37889 ft 472 kts 295°
2026-05-04 03:17 9.53921 85.25066 37890 ft 472 kts 295°
2026-05-04 03:18 9.56700 85.19047 37889 ft 472 kts 295°
2026-05-04 03:18 9.59473 85.13035 37889 ft 472 kts 295°
2026-05-04 03:19 9.62256 85.07002 37889 ft 474 kts 295°
2026-05-04 03:19 9.65041 85.00959 37888 ft 473 kts 295°
2026-05-04 03:20 9.67816 84.94933 37888 ft 474 kts 295°
2026-05-04 03:20 9.70600 84.88887 37886 ft 475 kts 295°
2026-05-04 03:21 9.73387 84.82832 37885 ft 475 kts 295°
2026-05-04 03:21 9.76186 84.76744 37886 ft 475 kts 295°
2026-05-04 03:22 9.78963 84.70702 37889 ft 475 kts 295°
2026-05-04 03:22 9.81756 84.64623 37889 ft 476 kts 295°
2026-05-04 03:23 9.84552 84.58534 37889 ft 477 kts 295°
2026-05-04 03:23 9.87341 84.52456 37891 ft 477 kts 295°
2026-05-04 03:24 9.90154 84.46322 37891 ft 477 kts 295°
2026-05-04 03:24 9.92941 84.40241 37890 ft 477 kts 295°
2026-05-04 03:25 9.95746 84.34116 37890 ft 476 kts 295°
2026-05-04 03:25 9.98546 84.28003 37889 ft 477 kts 295°
2026-05-04 03:26 10.01332 84.21914 37886 ft 478 kts 295°
2026-05-04 03:26 10.04125 84.15806 37888 ft 478 kts 295°
2026-05-04 03:27 10.06929 84.09672 37888 ft 478 kts 295°
2026-05-04 03:27 10.09713 84.03577 37886 ft 477 kts 295°
2026-05-04 03:28 10.12485 83.97505 37887 ft 476 kts 295°
2026-05-04 03:28 10.15276 83.91386 37881 ft 478 kts 295°
2026-05-04 03:29 10.18069 83.85262 37870 ft 479 kts 295°
2026-05-04 03:29 10.20857 83.79144 37869 ft 478 kts 295°
2026-05-04 03:30 10.23656 83.72998 37866 ft 478 kts 295°
2026-05-04 03:30 10.26427 83.66911 37869 ft 478 kts 295°
2026-05-04 03:31 10.29217 83.60777 37868 ft 478 kts 295°
2026-05-04 03:31 10.32008 83.54640 37869 ft 478 kts 295°
2026-05-04 03:32 10.34780 83.48540 37868 ft 477 kts 295°
2026-05-04 03:32 10.37563 83.42410 37868 ft 479 kts 295°
2026-05-04 03:33 10.40332 83.36310 37869 ft 479 kts 295°
2026-05-04 03:33 10.43132 83.30136 37867 ft 478 kts 295°
2026-05-04 03:34 10.45912 83.24003 37867 ft 478 kts 295°
2026-05-04 03:34 10.48699 83.17853 37867 ft 477 kts 295°
2026-05-04 03:35 10.51470 83.11731 37868 ft 477 kts 295°
2026-05-04 03:35 10.54246 83.05597 37865 ft 478 kts 295°
2026-05-04 03:36 10.57028 82.99445 37869 ft 478 kts 295°
2026-05-04 03:36 10.59811 82.93286 37871 ft 478 kts 295°
2026-05-04 03:37 10.62563 82.87194 37870 ft 476 kts 295°
2026-05-04 03:37 10.65335 82.81072 37865 ft 477 kts 295°
2026-05-04 03:38 10.68113 82.74953 37871 ft 476 kts 295°
2026-05-04 03:38 10.70867 82.68882 37869 ft 476 kts 295°
2026-05-04 03:39 10.73648 82.62746 37872 ft 476 kts 295°
2026-05-04 03:39 10.76415 82.56636 37869 ft 475 kts 295°
2026-05-04 03:40 10.79190 82.50505 37867 ft 475 kts 295°
2026-05-04 03:40 10.81946 82.44411 37869 ft 475 kts 295°
2026-05-04 03:41 10.84711 82.38295 37871 ft 474 kts 295°
2026-05-04 03:41 10.87472 82.32184 37867 ft 474 kts 295°
2026-05-04 03:42 10.90204 82.26133 37869 ft 474 kts 295°
2026-05-04 03:42 10.92951 82.20045 37871 ft 473 kts 295°
2026-05-04 03:43 10.95696 82.13957 37869 ft 472 kts 295°
2026-05-04 03:43 10.98458 82.07828 37870 ft 473 kts 295°
2026-05-04 03:44 11.01206 82.01726 37866 ft 473 kts 295°
2026-05-04 03:44 11.03929 81.95676 37856 ft 473 kts 295°
2026-05-04 03:45 11.06679 81.89564 37848 ft 473 kts 295°
2026-05-04 03:45 11.09423 81.83459 37854 ft 474 kts 295°
2026-05-04 03:46 11.12162 81.77361 37860 ft 474 kts 295°
2026-05-04 03:46 11.14900 81.71262 37861 ft 474 kts 295°
2026-05-04 03:47 11.17646 81.65141 37859 ft 474 kts 295°
2026-05-04 03:47 11.20386 81.59031 37858 ft 474 kts 295°
2026-05-04 03:48 11.23129 81.52908 37857 ft 474 kts 295°
2026-05-04 03:48 11.25876 81.46774 37859 ft 475 kts 295°
2026-05-04 03:49 11.28612 81.40661 37861 ft 475 kts 295°
2026-05-04 03:49 11.31341 81.34557 37860 ft 475 kts 295°
2026-05-04 03:50 11.34092 81.28404 37861 ft 475 kts 295°
2026-05-04 03:50 11.36834 81.22263 37862 ft 476 kts 295°
2026-05-04 03:51 11.39561 81.16152 37861 ft 475 kts 295°
2026-05-04 03:51 11.42289 81.10036 37861 ft 476 kts 295°
2026-05-04 03:52 11.45019 81.03911 37859 ft 475 kts 295°
2026-05-04 03:52 11.47765 80.97749 37860 ft 476 kts 295°
2026-05-04 03:53 11.50498 80.91608 37857 ft 476 kts 295°
2026-05-04 03:53 11.53228 80.85472 37856 ft 476 kts 295°
2026-05-04 03:54 11.55963 80.79318 37863 ft 476 kts 295°
2026-05-04 03:54 11.58682 80.73199 37863 ft 476 kts 295°
2026-05-04 03:55 11.61408 80.67058 37862 ft 477 kts 295°
2026-05-04 03:55 11.64164 80.60847 37856 ft 477 kts 295°
2026-05-04 03:56 11.66891 80.54696 37851 ft 476 kts 295°
2026-05-04 03:56 11.69631 80.48513 37850 ft 477 kts 295°
2026-05-04 03:57 11.72359 80.42351 37850 ft 477 kts 295°
2026-05-04 03:57 11.75092 80.36173 37848 ft 477 kts 295°
2026-05-04 03:58 11.79206 80.26868 37846 ft 477 kts 295°
2026-05-04 03:58 11.81918 80.20729 37846 ft 477 kts 295°
2026-05-04 03:59 11.84645 80.14551 37846 ft 477 kts 295°
2026-05-04 03:59 11.87392 80.08302 37847 ft 477 kts 295°
2026-05-04 04:00 11.90085 80.02125 37848 ft 478 kts 295°
2026-05-04 04:00 11.92789 79.95920 37849 ft 478 kts 295°
2026-05-04 04:01 11.95509 79.89677 37850 ft 478 kts 295°
2026-05-04 04:01 11.98225 79.83437 37850 ft 479 kts 295°
2026-05-04 04:02 12.00921 79.77240 37847 ft 479 kts 295°
2026-05-04 04:02 12.03636 79.70996 37840 ft 479 kts 295°
2026-05-04 04:03 12.06329 79.64799 37838 ft 478 kts 295°
2026-05-04 04:03 12.09053 79.58540 37838 ft 479 kts 295°
2026-05-04 04:04 12.11872 79.52361 37837 ft 479 kts 296°
2026-05-04 04:04 12.14694 79.46186 37837 ft 479 kts 296°
2026-05-04 04:05 12.17510 79.40012 37841 ft 480 kts 296°
2026-05-04 04:05 12.20331 79.33818 37846 ft 480 kts 296°
2026-05-04 04:06 12.23150 79.27618 37850 ft 479 kts 296°
2026-05-04 04:06 12.25974 79.21403 37856 ft 480 kts 296°
2026-05-04 04:07 12.28796 79.15189 37861 ft 480 kts 296°
2026-05-04 04:07 12.31613 79.08981 37866 ft 480 kts 296°
2026-05-04 04:08 12.34415 79.02799 37868 ft 480 kts 296°
2026-05-04 04:08 12.37256 78.96526 37875 ft 479 kts 296°
2026-05-04 04:09 12.40043 78.90370 37901 ft 480 kts 296°
2026-05-04 04:09 12.42857 78.84151 37931 ft 480 kts 296°
2026-05-04 04:10 12.45679 78.77907 37967 ft 481 kts 296°
2026-05-04 04:10 12.48486 78.71692 38006 ft 481 kts 296°
2026-05-04 04:11 12.51301 78.65456 37992 ft 480 kts 296°
2026-05-04 04:11 12.54106 78.59238 37965 ft 480 kts 296°
2026-05-04 04:12 12.56899 78.53042 37946 ft 479 kts 295°
2026-05-04 04:12 12.59701 78.46819 37950 ft 479 kts 295°
2026-05-04 04:13 12.62499 78.40602 37973 ft 479 kts 295°
2026-05-04 04:13 12.65304 78.34365 37994 ft 479 kts 295°
2026-05-04 04:14 12.68091 78.28165 38007 ft 479 kts 295°
2026-05-04 04:14 12.70892 78.21928 38031 ft 480 kts 295°
2026-05-04 04:15 12.73679 78.15715 38040 ft 479 kts 295°
2026-05-04 04:15 12.76477 78.09476 38036 ft 480 kts 295°
2026-05-04 04:16 12.79250 78.03288 38038 ft 479 kts 295°
2026-05-04 04:16 12.82063 77.97004 38042 ft 479 kts 295°
2026-05-04 04:17 12.84840 77.90797 38050 ft 479 kts 295°
2026-05-04 04:17 12.87619 77.84582 38048 ft 479 kts 295°
2026-05-04 04:18 12.90384 77.78391 38043 ft 480 kts 295°
2026-05-04 04:18 12.93177 77.72136 38045 ft 480 kts 295°
2026-05-04 04:19 12.96027 77.65894 38042 ft 480 kts 299°
2026-05-04 04:19 12.99295 77.59875 38047 ft 480 kts 300°
2026-05-04 04:20 13.02576 77.53829 38051 ft 481 kts 300°
2026-05-04 04:20 13.05814 77.47819 38049 ft 481 kts 300°
2026-05-04 04:21 13.09040 77.41808 38053 ft 481 kts 299°
2026-05-04 04:21 13.12276 77.35765 38059 ft 480 kts 299°
2026-05-04 04:22 13.15498 77.29737 38066 ft 480 kts 299°
2026-05-04 04:22 13.18724 77.23695 38066 ft 480 kts 299°
2026-05-04 04:23 13.21931 77.17682 38060 ft 481 kts 299°
2026-05-04 04:23 13.25154 77.11635 38057 ft 481 kts 299°
2026-05-04 04:24 13.28359 77.05617 38050 ft 481 kts 299°
2026-05-04 04:24 13.31572 76.99578 38045 ft 480 kts 299°
2026-05-04 04:25 13.34784 76.93539 38045 ft 481 kts 299°
2026-05-04 04:25 13.37968 76.87547 38047 ft 481 kts 299°
2026-05-04 04:26 13.41176 76.81504 38049 ft 481 kts 299°
2026-05-04 04:26 13.44363 76.75499 38048 ft 481 kts 299°
2026-05-04 04:27 13.47570 76.69450 38045 ft 480 kts 299°
2026-05-04 04:27 13.50762 76.63425 38045 ft 480 kts 299°
2026-05-04 04:28 13.53938 76.57427 38046 ft 481 kts 298°
2026-05-04 04:28 13.57145 76.51366 38045 ft 481 kts 298°
2026-05-04 04:29 13.60325 76.45351 38046 ft 481 kts 299°
2026-05-04 04:29 13.63501 76.39340 38045 ft 481 kts 299°
2026-05-04 04:30 13.66703 76.33274 38044 ft 481 kts 298°
2026-05-04 04:30 13.69885 76.27244 38041 ft 481 kts 298°
2026-05-04 04:31 13.73060 76.21220 38043 ft 481 kts 298°
2026-05-04 04:31 13.76260 76.15145 38039 ft 481 kts 298°
2026-05-04 04:32 13.79453 76.09081 38041 ft 481 kts 298°
2026-05-04 04:32 13.82633 76.03033 38046 ft 482 kts 298°
2026-05-04 04:33 13.85816 75.96978 38041 ft 481 kts 298°
2026-05-04 04:33 13.88995 75.90925 38033 ft 481 kts 298°
2026-05-04 04:34 13.92149 75.84916 38029 ft 481 kts 298°
2026-05-04 04:34 13.95334 75.78842 38020 ft 481 kts 298°
2026-05-04 04:35 13.98499 75.72804 38018 ft 481 kts 298°
2026-05-04 04:35 14.01663 75.66762 38022 ft 481 kts 298°
2026-05-04 04:36 14.04837 75.60696 38019 ft 481 kts 298°
2026-05-04 04:36 14.08003 75.54640 38025 ft 481 kts 298°
2026-05-04 04:37 14.14338 75.42476 38018 ft 481 kts 298°
2026-05-04 04:38 14.17499 75.36397 38015 ft 482 kts 298°
2026-05-04 04:38 14.20660 75.30314 38013 ft 483 kts 298°
2026-05-04 04:39 14.23842 75.24184 38012 ft 481 kts 298°
2026-05-04 04:39 14.26993 75.18110 38011 ft 482 kts 298°
2026-05-04 04:40 14.30151 75.12019 38007 ft 481 kts 298°
2026-05-04 04:40 14.33295 75.05949 38005 ft 481 kts 298°
2026-05-04 04:41 14.36441 74.99869 38002 ft 482 kts 298°
2026-05-04 04:41 14.39612 74.93739 37989 ft 483 kts 298°
2026-05-04 04:42 14.42764 74.87640 37977 ft 483 kts 298°
2026-05-04 04:42 14.45921 74.81528 37975 ft 482 kts 298°
2026-05-04 04:43 14.49071 74.75429 37974 ft 482 kts 298°
2026-05-04 04:43 14.52291 74.69350 37969 ft 481 kts 298°
2026-05-04 04:44 14.55481 74.63332 37952 ft 481 kts 298°
2026-05-04 04:44 14.58681 74.57285 37929 ft 481 kts 298°
2026-05-04 04:45 14.61884 74.51226 37905 ft 481 kts 298°
2026-05-04 04:47 14.73099 74.29964 37897 ft 482 kts 298°
2026-05-04 04:47 14.76300 74.23885 37900 ft 482 kts 298°
2026-05-04 04:48 14.79484 74.17833 37904 ft 481 kts 298°
2026-05-04 04:49 14.87465 74.02639 37896 ft 482 kts 298°
2026-05-04 04:49 14.90663 73.96545 37888 ft 483 kts 298°
2026-05-04 04:50 14.93853 73.90464 37887 ft 482 kts 298°
2026-05-04 04:50 14.97059 73.84351 37890 ft 481 kts 298°
2026-05-04 04:51 15.00230 73.78300 37890 ft 481 kts 298°
2026-05-04 04:51 15.03430 73.72176 37889 ft 482 kts 298°
2026-05-04 04:52 15.06620 73.66063 37890 ft 482 kts 298°
2026-05-04 04:52 15.09794 73.59976 37889 ft 482 kts 298°
2026-05-04 04:53 15.12972 73.53875 37888 ft 481 kts 298°
2026-05-04 04:53 15.16163 73.47746 37888 ft 481 kts 298°
2026-05-04 04:54 15.19327 73.41663 37889 ft 481 kts 298°
2026-05-04 04:54 15.22493 73.35571 37890 ft 481 kts 298°
2026-05-04 04:55 15.25660 73.29472 37890 ft 481 kts 298°
2026-05-04 04:55 15.28848 73.23329 37890 ft 482 kts 298°
2026-05-04 04:56 15.32012 73.17227 37890 ft 481 kts 297°
2026-05-04 04:56 15.35153 73.11164 37888 ft 480 kts 297°
2026-05-04 04:57 15.38313 73.05059 37888 ft 480 kts 297°
2026-05-04 04:57 15.41474 72.98947 37888 ft 480 kts 298°
2026-05-04 04:58 15.44625 72.92849 37888 ft 481 kts 297°
2026-05-04 04:58 15.47794 72.86711 37889 ft 482 kts 297°
2026-05-04 04:59 15.50948 72.80599 37886 ft 481 kts 297°
2026-05-04 04:59 15.54100 72.74483 37879 ft 479 kts 297°
2026-05-04 05:00 15.57255 72.68358 37879 ft 479 kts 297°
2026-05-04 05:01 15.61973 72.59187 37882 ft 479 kts 297°
2026-05-04 05:01 15.65095 72.53113 37881 ft 479 kts 297°
2026-05-04 05:02 15.68232 72.47002 37882 ft 478 kts 297°
2026-05-04 05:02 15.71349 72.40929 37882 ft 478 kts 297°
2026-05-04 05:03 15.74466 72.34848 37883 ft 476 kts 297°
2026-05-04 05:04 15.80712 72.22649 37878 ft 476 kts 297°
2026-05-04 05:04 15.83802 72.16607 37886 ft 475 kts 297°
2026-05-04 05:06 15.96200 71.92308 37889 ft 476 kts 297°
2026-05-04 05:07 15.99285 71.86249 37888 ft 475 kts 297°
2026-05-04 05:07 16.02368 71.80190 37889 ft 475 kts 297°
2026-05-04 05:09 16.16389 71.52930 37888 ft 477 kts 298°
2026-05-04 05:10 16.19574 71.46841 37887 ft 476 kts 298°
2026-05-04 05:10 16.22734 71.40791 37888 ft 475 kts 298°
2026-05-04 05:11 16.25875 71.34772 37888 ft 476 kts 298°
2026-05-04 05:11 16.29024 71.28730 37889 ft 476 kts 298°
2026-05-04 05:12 16.32173 71.22684 37889 ft 476 kts 297°
2026-05-04 05:12 16.35323 71.16629 37888 ft 477 kts 297°
2026-05-04 05:13 16.38491 71.10535 37888 ft 476 kts 297°
2026-05-04 05:13 16.41638 71.04476 37888 ft 476 kts 298°
2026-05-04 05:14 16.44776 70.98428 37888 ft 475 kts 298°
2026-05-04 05:14 16.47910 70.92383 37888 ft 475 kts 298°
2026-05-04 05:15 16.51045 70.86331 37889 ft 474 kts 297°
2026-05-04 05:15 16.54181 70.80295 37886 ft 474 kts 298°
2026-05-04 05:16 16.57363 70.74228 37881 ft 475 kts 298°
2026-05-04 05:16 16.60534 70.68175 37876 ft 474 kts 298°
2026-05-04 05:17 16.63675 70.62172 37876 ft 474 kts 298°
2026-05-04 05:17 16.66827 70.56141 37874 ft 473 kts 298°
2026-05-04 05:18 16.69975 70.50112 37876 ft 473 kts 298°
2026-05-04 05:18 16.73122 70.44080 37873 ft 474 kts 298°
2026-05-04 05:19 16.76267 70.38045 37872 ft 473 kts 298°
2026-05-04 05:19 16.79404 70.32022 37872 ft 474 kts 297°
2026-05-04 05:20 16.82552 70.25970 37878 ft 473 kts 298°
2026-05-04 05:20 16.85666 70.19981 37871 ft 472 kts 298°
2026-05-04 05:21 16.88810 70.13925 37876 ft 473 kts 298°
2026-05-04 05:21 16.91923 70.07925 37870 ft 473 kts 298°
2026-05-04 05:22 16.95061 70.01873 37868 ft 473 kts 298°
2026-05-04 05:22 16.98187 69.95837 37871 ft 473 kts 298°
2026-05-04 05:23 17.01300 69.89822 37883 ft 472 kts 298°
2026-05-04 05:23 17.04424 69.83778 37884 ft 472 kts 298°
2026-05-04 05:24 17.07542 69.77742 37883 ft 472 kts 298°
2026-05-04 05:24 17.10658 69.71705 37885 ft 472 kts 298°
2026-05-04 05:25 17.13771 69.65665 37885 ft 473 kts 298°
2026-05-04 05:25 17.16884 69.59623 37883 ft 473 kts 298°
2026-05-04 05:26 17.19991 69.53590 37883 ft 474 kts 298°
2026-05-04 05:26 17.23133 69.47532 37879 ft 474 kts 298°
2026-05-04 05:28 17.35643 69.23363 37883 ft 473 kts 298°
2026-05-04 05:29 17.38773 69.17300 37880 ft 474 kts 298°
2026-05-04 05:29 17.41905 69.11228 37880 ft 474 kts 298°
2026-05-04 05:31 17.54398 68.86950 37878 ft 474 kts 298°
2026-05-04 05:32 17.57518 68.80872 37870 ft 473 kts 298°
2026-05-04 05:33 17.62191 68.71759 37870 ft 475 kts 298°
2026-05-04 05:33 17.65322 68.65646 37871 ft 475 kts 298°
2026-05-04 05:34 17.68441 68.59551 37867 ft 475 kts 298°
2026-05-04 05:34 17.71560 68.53449 37869 ft 475 kts 298°
2026-05-04 05:35 17.74680 68.47340 37863 ft 475 kts 298°
2026-05-04 05:35 17.77811 68.41203 37866 ft 475 kts 298°
2026-05-04 05:36 17.80909 68.35127 37868 ft 475 kts 298°
2026-05-04 05:36 17.84044 68.28970 37868 ft 476 kts 298°
2026-05-04 05:37 17.87154 68.22857 37864 ft 475 kts 298°
2026-05-04 05:37 17.90259 68.16750 37866 ft 477 kts 298°
2026-05-04 05:38 17.94958 68.07492 37863 ft 477 kts 298°
2026-05-04 05:38 17.98064 68.01366 37869 ft 477 kts 298°
2026-05-04 05:39 18.02738 67.92136 37869 ft 478 kts 298°
2026-05-04 05:40 18.07403 67.82912 37879 ft 477 kts 298°
2026-05-04 05:40 18.10600 67.76767 37882 ft 478 kts 299°
2026-05-04 05:41 18.13811 67.70662 37886 ft 478 kts 299°
2026-05-04 05:41 18.17001 67.64583 37888 ft 477 kts 299°
2026-05-04 05:42 18.20201 67.58473 37883 ft 478 kts 299°
2026-05-04 05:42 18.23415 67.52331 37875 ft 477 kts 299°
2026-05-04 05:43 18.26613 67.46209 37874 ft 477 kts 299°
2026-05-04 05:45 18.39345 67.21780 37878 ft 476 kts 299°
2026-05-04 05:47 18.52040 66.97321 37867 ft 474 kts 299°
2026-05-04 05:47 18.55198 66.91222 37868 ft 475 kts 299°
2026-05-04 05:48 18.58359 66.85111 37866 ft 472 kts 299°
2026-05-04 05:48 18.61488 66.79057 37868 ft 471 kts 299°
2026-05-04 05:49 18.64628 66.72974 37869 ft 472 kts 299°
2026-05-04 05:49 18.67764 66.66894 37868 ft 472 kts 299°
2026-05-04 05:51 18.80210 66.42701 37867 ft 468 kts 298°
2026-05-04 05:52 18.83310 66.36661 37875 ft 470 kts 298°
2026-05-04 05:52 18.86420 66.30594 37882 ft 467 kts 298°
2026-05-04 05:54 18.98740 66.06503 37888 ft 465 kts 297°
2026-05-04 05:55 19.01819 66.00468 37887 ft 466 kts 298°
2026-05-04 05:55 19.04897 65.94427 37886 ft 465 kts 297°
2026-05-04 05:56 19.07958 65.88414 37874 ft 465 kts 297°
2026-05-04 05:56 19.11019 65.82394 37861 ft 465 kts 297°
2026-05-04 05:57 19.14103 65.76325 37867 ft 466 kts 297°
2026-05-04 05:57 19.17160 65.70301 37866 ft 467 kts 298°
2026-05-04 05:58 19.20229 65.64249 37864 ft 466 kts 298°
2026-05-04 05:58 19.23298 65.58189 37862 ft 466 kts 298°
2026-05-04 05:59 19.26345 65.52168 37864 ft 467 kts 297°
2026-05-04 05:59 19.29420 65.46084 37862 ft 466 kts 297°
2026-05-04 06:00 19.32471 65.40042 37857 ft 467 kts 297°
2026-05-04 06:00 19.35531 65.33976 37863 ft 466 kts 297°
2026-05-04 06:01 19.38565 65.27955 37865 ft 466 kts 297°
2026-05-04 06:03 19.50775 65.03661 37865 ft 468 kts 297°
2026-05-04 06:05 19.64725 64.76466 37867 ft 467 kts 297°
2026-05-04 06:06 19.67829 64.70423 37868 ft 467 kts 297°
2026-05-04 06:06 19.70930 64.64381 37869 ft 467 kts 297°
2026-05-04 06:07 19.74059 64.58275 37870 ft 468 kts 297°
2026-05-04 06:07 19.77160 64.52218 37871 ft 468 kts 297°
2026-05-04 06:08 19.80253 64.46169 37874 ft 468 kts 297°
2026-05-04 06:08 19.83360 64.40086 37869 ft 467 kts 297°
2026-05-04 06:09 19.86454 64.34023 37875 ft 467 kts 297°
2026-05-04 06:11 19.98814 64.09739 37865 ft 467 kts 297°
2026-05-04 06:13 20.11136 63.85425 37865 ft 466 kts 297°
2026-05-04 06:14 20.21862 63.64175 37862 ft 467 kts 297°
2026-05-04 06:15 20.24924 63.58094 37862 ft 467 kts 297°
2026-05-04 06:15 20.27971 63.52036 37860 ft 466 kts 297°
2026-05-04 06:16 20.31027 63.45954 37857 ft 465 kts 297°
2026-05-04 06:16 20.34068 63.39895 37854 ft 465 kts 297°
2026-05-04 06:17 20.37118 63.33814 37860 ft 466 kts 296°
2026-05-04 06:17 20.40164 63.27729 37861 ft 465 kts 296°
2026-05-04 06:18 20.43204 63.21655 37858 ft 464 kts 296°
2026-05-04 06:20 20.55349 62.97312 37857 ft 464 kts 296°
2026-05-04 06:21 20.62899 62.82124 37857 ft 465 kts 296°
2026-05-04 06:22 20.65922 62.76032 37862 ft 464 kts 296°
2026-05-04 06:25 20.87032 62.33299 37850 ft 464 kts 296°
2026-05-04 06:26 20.90040 62.27182 37856 ft 465 kts 296°
2026-05-04 06:26 20.93059 62.21038 37848 ft 464 kts 295°
2026-05-04 06:27 21.00564 62.05729 37851 ft 465 kts 295°
2026-05-04 06:28 21.03556 61.99614 37848 ft 464 kts 295°
2026-05-04 06:28 21.06545 61.93498 37845 ft 464 kts 295°
2026-05-04 06:29 21.09530 61.87384 37841 ft 463 kts 295°
2026-05-04 06:29 21.12523 61.81245 37846 ft 463 kts 295°
2026-05-04 06:30 21.15504 61.75127 37850 ft 462 kts 295°
2026-05-04 06:30 21.18482 61.69000 37855 ft 461 kts 294°
2026-05-04 06:31 21.20515 61.62579 37858 ft 456 kts 278°
2026-05-04 06:31 21.20991 61.55854 37858 ft 454 kts 271°
2026-05-04 06:33 21.21802 61.28770 37862 ft 453 kts 270°
2026-05-04 06:34 21.21982 61.22027 37862 ft 453 kts 270°
2026-05-04 06:34 21.22156 61.15325 37852 ft 453 kts 270°
2026-05-04 06:36 21.22827 60.88436 37849 ft 452 kts 270°
2026-05-04 06:37 21.22987 60.81741 37853 ft 453 kts 270°
2026-05-04 06:37 21.23145 60.75010 37844 ft 452 kts 270°
2026-05-04 06:38 21.23302 60.68250 37838 ft 452 kts 270°
2026-05-04 06:40 21.23897 60.41329 37837 ft 452 kts 270°
2026-05-04 06:40 21.24038 60.34638 37837 ft 452 kts 269°
2026-05-04 06:41 21.24178 60.27889 37852 ft 452 kts 269°
2026-05-04 06:41 21.24314 60.21162 37862 ft 452 kts 269°
2026-05-04 06:42 21.24448 60.14467 37859 ft 451 kts 269°
2026-05-04 06:44 21.24948 59.87532 37864 ft 452 kts 269°
2026-05-04 06:44 21.25067 59.80760 37855 ft 452 kts 269°
2026-05-04 06:45 21.25183 59.74050 37852 ft 451 kts 269°
2026-05-04 06:45 21.25296 59.67308 37854 ft 451 kts 269°
2026-05-04 06:46 21.25406 59.60592 37851 ft 450 kts 269°
2026-05-04 06:46 21.25513 59.53867 37853 ft 451 kts 269°
2026-05-04 06:48 21.25916 59.27067 37850 ft 450 kts 269°
2026-05-04 06:50 21.26276 59.00312 37850 ft 447 kts 269°
2026-05-04 06:51 21.26359 58.93624 37854 ft 447 kts 269°
2026-05-04 06:51 21.26440 58.86935 37855 ft 448 kts 269°
2026-05-04 06:52 21.26639 58.80286 37857 ft 449 kts 275°
2026-05-04 06:52 21.28132 58.73745 37861 ft 454 kts 284°
2026-05-04 06:53 21.29998 58.67278 37858 ft 453 kts 284°
2026-05-04 06:53 21.31860 58.60802 37855 ft 453 kts 284°
2026-05-04 06:54 21.33717 58.54324 37850 ft 453 kts 284°
2026-05-04 06:54 21.35556 58.47896 37849 ft 453 kts 284°
2026-05-04 06:55 21.37397 58.41448 37845 ft 452 kts 284°
2026-05-04 06:55 21.39229 58.35020 37840 ft 453 kts 284°
2026-05-04 06:57 21.46573 58.09142 37855 ft 453 kts 284°
2026-05-04 06:58 21.48395 58.02699 37855 ft 451 kts 284°
2026-05-04 06:58 21.50223 57.96220 37857 ft 452 kts 284°
2026-05-04 06:59 21.52045 57.89753 37859 ft 453 kts 284°
2026-05-04 06:59 21.53868 57.83273 37860 ft 452 kts 284°
2026-05-04 07:01 21.61114 57.57392 37863 ft 453 kts 284°
2026-05-04 07:02 21.62920 57.50907 37862 ft 452 kts 284°
2026-05-04 07:02 21.64725 57.44416 37862 ft 452 kts 284°
2026-05-04 07:03 21.66529 57.37920 37862 ft 452 kts 284°
2026-05-04 07:03 21.68321 57.31455 37871 ft 452 kts 283°
2026-05-04 07:04 21.70122 57.24943 37872 ft 451 kts 284°
2026-05-04 07:04 21.71901 57.18503 37869 ft 451 kts 284°
2026-05-04 07:05 21.73707 57.11951 37869 ft 452 kts 283°
2026-05-04 07:05 21.75480 57.05503 37868 ft 452 kts 283°
2026-05-04 07:06 21.78160 56.95735 37854 ft 451 kts 283°
2026-05-04 07:07 21.79941 56.89232 37852 ft 451 kts 283°
2026-05-04 07:09 21.87004 56.63331 37838 ft 449 kts 283°
2026-05-04 07:09 21.88762 56.56858 37835 ft 448 kts 283°
2026-05-04 07:10 21.90511 56.50409 37833 ft 448 kts 283°
2026-05-04 07:12 21.97486 56.24561 37841 ft 446 kts 283°
2026-05-04 07:12 21.99203 56.18161 37839 ft 446 kts 283°
2026-05-04 07:13 22.00918 56.11759 37852 ft 445 kts 283°
2026-05-04 07:13 22.02630 56.05360 37854 ft 446 kts 283°
2026-05-04 07:14 22.06936 55.89289 37849 ft 445 kts 283°
2026-05-04 07:15 22.08647 55.82884 37846 ft 445 kts 283°
2026-05-04 07:15 22.10371 55.76421 37843 ft 444 kts 283°
2026-05-04 07:16 22.12070 55.70043 37842 ft 443 kts 283°
2026-05-04 07:16 22.13765 55.63660 37840 ft 443 kts 283°
2026-05-04 07:17 22.15427 55.57293 37835 ft 440 kts 279°
2026-05-04 07:17 22.16250 55.50764 37836 ft 440 kts 274°
2026-05-04 07:18 22.16894 55.44164 37838 ft 439 kts 274°
2026-05-04 07:18 22.17529 55.37630 37834 ft 439 kts 274°
2026-05-04 07:19 22.18168 55.31042 37840 ft 438 kts 274°
2026-05-04 07:19 22.18795 55.24543 37837 ft 439 kts 273°
2026-05-04 07:20 22.19428 55.17956 37847 ft 438 kts 273°
2026-05-04 07:20 22.20052 55.11440 37852 ft 437 kts 274°
2026-05-04 07:22 22.22528 54.85305 37876 ft 436 kts 273°
2026-05-04 07:23 22.23136 54.78820 37869 ft 434 kts 273°
2026-05-04 07:23 22.23743 54.72308 37862 ft 436 kts 274°
2026-05-04 07:24 22.24346 54.65818 37858 ft 437 kts 273°
2026-05-04 07:24 22.24950 54.59290 37851 ft 437 kts 274°
2026-05-04 07:26 22.27335 54.33217 37872 ft 435 kts 273°
2026-05-04 07:27 22.27927 54.26683 37877 ft 436 kts 273°
2026-05-04 07:27 22.28512 54.20181 37880 ft 434 kts 273°
2026-05-04 07:28 22.29096 54.13672 37876 ft 434 kts 273°
2026-05-04 07:28 22.29676 54.07169 37874 ft 434 kts 273°
2026-05-04 07:29 22.30251 54.00702 37868 ft 433 kts 273°
2026-05-04 07:29 22.30824 53.94221 37864 ft 433 kts 274°
2026-05-04 07:30 22.31396 53.87726 37862 ft 433 kts 273°
2026-05-04 07:30 22.31965 53.81232 37861 ft 433 kts 273°
2026-05-04 07:31 22.32534 53.74709 37859 ft 433 kts 273°
2026-05-04 07:33 22.34765 53.48823 37857 ft 432 kts 274°
2026-05-04 07:33 22.35316 53.42363 37859 ft 432 kts 274°
2026-05-04 07:34 22.35864 53.35896 37855 ft 432 kts 274°
2026-05-04 07:34 22.36410 53.29423 37868 ft 433 kts 273°
2026-05-04 07:35 22.36952 53.22976 37868 ft 432 kts 273°
2026-05-04 07:35 22.37490 53.16542 37859 ft 432 kts 273°
2026-05-04 07:36 22.38029 53.10064 37851 ft 431 kts 273°
2026-05-04 07:38 22.40145 52.84305 37859 ft 429 kts 274°
2026-05-04 07:38 22.40667 52.77887 37862 ft 429 kts 273°
2026-05-04 07:39 22.41186 52.71452 37857 ft 430 kts 273°
2026-05-04 07:39 22.41701 52.65043 37857 ft 431 kts 274°
2026-05-04 07:40 22.42216 52.58604 37861 ft 431 kts 274°
2026-05-04 07:40 22.42730 52.52148 37855 ft 432 kts 274°
2026-05-04 07:41 22.43243 52.45670 37855 ft 431 kts 274°
2026-05-04 07:41 22.43748 52.39259 37852 ft 431 kts 274°
2026-05-04 07:42 22.44251 52.32840 37867 ft 430 kts 273°
2026-05-04 07:42 22.44754 52.26384 37862 ft 430 kts 273°
2026-05-04 07:43 22.45252 52.19964 37859 ft 430 kts 273°
2026-05-04 07:43 22.45750 52.13505 37856 ft 430 kts 273°
2026-05-04 07:44 22.46243 52.07088 37852 ft 429 kts 273°
2026-05-04 07:44 22.46734 52.00659 37849 ft 431 kts 273°
2026-05-04 07:45 22.47225 51.94195 37847 ft 429 kts 273°
2026-05-04 07:45 22.47711 51.87756 37845 ft 430 kts 273°
2026-05-04 07:46 22.48195 51.81313 37844 ft 431 kts 273°
2026-05-04 07:46 22.48678 51.74853 37841 ft 430 kts 273°
2026-05-04 07:47 22.49160 51.68372 37840 ft 430 kts 273°
2026-05-04 07:49 22.51052 51.42571 37834 ft 429 kts 273°
2026-05-04 07:49 22.51515 51.36162 37834 ft 430 kts 273°
2026-05-04 07:50 22.51976 51.29750 37851 ft 429 kts 273°
2026-05-04 07:50 22.52435 51.23334 37856 ft 429 kts 273°
2026-05-04 07:51 22.52893 51.16891 37855 ft 429 kts 273°
2026-05-04 07:51 22.53346 51.10488 37852 ft 429 kts 273°
2026-05-04 07:52 22.53799 51.04042 37855 ft 429 kts 273°
2026-05-04 07:52 22.54251 50.97588 37857 ft 430 kts 273°
2026-05-04 07:54 22.56027 50.71816 37872 ft 429 kts 273°
2026-05-04 07:55 22.56463 50.65388 37870 ft 428 kts 273°
2026-05-04 07:55 22.56895 50.58985 37871 ft 429 kts 273°
2026-05-04 07:56 22.57327 50.52548 37872 ft 428 kts 273°
2026-05-04 07:56 22.57756 50.46118 37871 ft 429 kts 273°
2026-05-04 07:57 22.58184 50.39669 37868 ft 428 kts 273°
2026-05-04 07:57 22.58609 50.33210 37881 ft 427 kts 273°
2026-05-04 07:58 22.59028 50.26810 37880 ft 429 kts 273°
2026-05-04 07:58 22.59450 50.20331 37875 ft 429 kts 273°
2026-05-04 07:59 22.59863 50.13938 37873 ft 428 kts 273°
2026-05-04 07:59 22.60279 50.07471 37870 ft 430 kts 273°
2026-05-04 08:00 22.60690 50.01035 37869 ft 429 kts 273°
2026-05-04 08:02 22.62308 49.75308 37867 ft 428 kts 273°
2026-05-04 08:02 22.62709 49.68828 37866 ft 427 kts 273°
2026-05-04 08:03 22.63104 49.62393 37868 ft 427 kts 273°
2026-05-04 08:03 22.63497 49.55952 37865 ft 427 kts 273°
2026-05-04 08:04 22.63889 49.49493 37866 ft 427 kts 273°
2026-05-04 08:04 22.64274 49.43094 37863 ft 428 kts 273°
2026-05-04 08:05 22.64659 49.36667 37863 ft 428 kts 273°
2026-05-04 08:05 22.65041 49.30238 37885 ft 427 kts 272°
2026-05-04 08:06 22.65419 49.23837 37897 ft 427 kts 273°
2026-05-04 08:06 22.65795 49.17435 37896 ft 427 kts 273°
2026-05-04 08:08 22.67279 48.91683 37902 ft 428 kts 272°
2026-05-04 08:11 22.68895 48.62787 37910 ft 427 kts 273°
2026-05-04 08:11 22.69425 48.53107 37911 ft 426 kts 273°
2026-05-04 08:12 22.69771 48.46728 37915 ft 426 kts 273°
2026-05-04 08:12 22.70118 48.40285 37914 ft 426 kts 273°
2026-05-04 08:13 22.70459 48.33886 37922 ft 427 kts 272°
2026-05-04 08:13 22.70798 48.27512 37927 ft 427 kts 272°
2026-05-04 08:14 22.71137 48.21062 37923 ft 427 kts 272°
2026-05-04 08:16 22.72462 47.95389 37931 ft 426 kts 272°
2026-05-04 08:16 22.72784 47.89024 37938 ft 425 kts 272°
2026-05-04 08:17 22.73107 47.82592 37949 ft 427 kts 272°
2026-05-04 08:17 22.73425 47.76208 37945 ft 425 kts 272°
2026-05-04 08:19 22.74677 47.50563 37973 ft 426 kts 272°
2026-05-04 08:20 22.74983 47.44169 37977 ft 425 kts 272°
2026-05-04 08:20 22.75288 47.37721 37988 ft 427 kts 272°
2026-05-04 08:21 22.75591 47.31281 38005 ft 427 kts 272°
2026-05-04 08:21 22.75890 47.24869 38015 ft 427 kts 272°
2026-05-04 08:22 22.76187 47.18443 38024 ft 427 kts 272°
2026-05-04 08:24 22.78186 46.92792 38024 ft 428 kts 274°
2026-05-04 08:24 22.78694 46.86333 38025 ft 428 kts 274°
2026-05-04 08:25 22.79194 46.79912 38027 ft 429 kts 274°
2026-05-04 08:25 22.79695 46.73443 38026 ft 428 kts 273°
2026-05-04 08:27 22.81552 46.49137 38059 ft 429 kts 273°
2026-05-04 08:28 22.82041 46.42656 38068 ft 430 kts 273°
2026-05-04 08:28 22.82523 46.36205 38072 ft 430 kts 273°
2026-05-04 08:29 22.83006 46.29696 38091 ft 429 kts 273°
2026-05-04 08:31 22.84904 46.03748 38044 ft 430 kts 272°
2026-05-04 08:33 22.86758 45.77821 38011 ft 429 kts 273°
2026-05-04 08:35 22.88574 45.51823 38034 ft 431 kts 272°
2026-05-04 08:35 22.89021 45.45330 38038 ft 431 kts 272°
2026-05-04 08:37 22.90564 45.22602 38072 ft 432 kts 272°
2026-05-04 08:38 22.91001 45.16085 38072 ft 431 kts 272°
2026-05-04 08:38 22.91434 45.09583 38070 ft 429 kts 272°
2026-05-04 08:40 22.93140 44.83515 38073 ft 430 kts 272°
2026-05-04 08:41 22.93560 44.76988 38083 ft 431 kts 272°
2026-05-04 08:41 22.93975 44.70511 38085 ft 428 kts 272°
2026-05-04 08:42 22.95085 44.64155 38084 ft 434 kts 285°
2026-05-04 08:42 22.97016 44.57896 38078 ft 434 kts 285°
2026-05-04 08:43 22.98929 44.51716 38077 ft 435 kts 285°
2026-05-04 08:43 23.00871 44.45427 38075 ft 432 kts 285°
2026-05-04 08:44 23.02795 44.39180 38084 ft 434 kts 285°
2026-05-04 08:46 23.10422 44.14305 38111 ft 434 kts 285°
2026-05-04 08:46 23.12314 44.08112 38113 ft 431 kts 285°
2026-05-04 08:47 23.14219 44.01863 38113 ft 430 kts 285°
2026-05-04 08:47 23.16095 43.95698 38116 ft 430 kts 285°
2026-05-04 08:48 23.17980 43.89498 38115 ft 430 kts 285°
2026-05-04 08:48 23.19859 43.83306 38113 ft 429 kts 285°
2026-05-04 08:49 23.21736 43.77110 38115 ft 429 kts 285°
2026-05-04 08:50 23.28285 43.55417 38106 ft 430 kts 285°
2026-05-04 08:51 23.30159 43.49189 38103 ft 429 kts 285°
2026-05-04 08:51 23.32023 43.42987 38112 ft 428 kts 285°
2026-05-04 08:52 23.33872 43.36823 38122 ft 428 kts 285°
2026-05-04 08:52 23.35726 43.30630 38140 ft 429 kts 285°
2026-05-04 08:54 23.43097 43.05899 38138 ft 427 kts 285°
2026-05-04 08:55 23.44929 42.99719 38135 ft 427 kts 285°
2026-05-04 08:55 23.46764 42.93516 38125 ft 428 kts 285°
2026-05-04 09:01 23.65691 42.29075 38124 ft 423 kts 285°
2026-05-04 09:01 23.67471 42.22947 38122 ft 421 kts 285°
2026-05-04 09:02 23.69250 42.16805 38117 ft 422 kts 285°
2026-05-04 09:02 23.71031 42.10648 38117 ft 422 kts 285°
2026-05-04 09:03 23.72808 42.04497 38112 ft 420 kts 285°
2026-05-04 09:03 23.74562 41.98412 38108 ft 420 kts 285°
2026-05-04 09:04 23.76329 41.92303 38108 ft 418 kts 285°
2026-05-04 09:04 23.78085 41.86223 38109 ft 418 kts 285°
2026-05-04 09:05 23.79837 41.80146 38110 ft 418 kts 285°
2026-05-04 09:05 23.81586 41.74066 38107 ft 417 kts 285°
2026-05-04 09:06 23.83332 41.67980 38106 ft 417 kts 285°
2026-05-04 09:07 23.89246 41.47257 33983 ft 425 kts 286°
2026-05-04 09:08 23.90132 41.44134 33216 ft 429 kts 286°
2026-05-04 09:08 23.91016 41.41017 32461 ft 428 kts 286°
2026-05-04 09:08 23.91893 41.37921 31799 ft 428 kts 286°
2026-05-04 09:08 23.92779 41.34793 31057 ft 434 kts 286°
2026-05-04 09:09 23.93668 41.31659 30532 ft 432 kts 286°
2026-05-04 09:09 23.94560 41.28513 30069 ft 432 kts 286°
2026-05-04 09:09 23.95446 41.25390 29576 ft 433 kts 286°
2026-05-04 09:09 23.96337 41.22242 29065 ft 432 kts 286°
2026-05-04 09:10 23.97226 41.19100 28507 ft 431 kts 286°
2026-05-04 09:10 23.98101 41.16005 27958 ft 427 kts 286°
2026-05-04 09:10 23.98978 41.12897 27431 ft 425 kts 286°
2026-05-04 09:10 23.99855 41.09792 26897 ft 424 kts 286°
2026-05-04 09:11 24.00724 41.06709 26354 ft 423 kts 286°
2026-05-04 09:11 24.01586 41.03648 25815 ft 421 kts 286°
2026-05-04 09:11 24.02433 41.00637 25287 ft 419 kts 286°
2026-05-04 09:11 24.03293 40.97579 24740 ft 416 kts 286°
2026-05-04 09:12 24.04139 40.94568 24215 ft 416 kts 286°
2026-05-04 09:12 24.04980 40.91571 23666 ft 414 kts 286°
2026-05-04 09:14 24.10734 40.71015 19876 ft 392 kts 285°
2026-05-04 09:14 24.11528 40.68167 19336 ft 390 kts 285°
2026-05-04 09:14 24.12311 40.65359 18796 ft 387 kts 285°
2026-05-04 09:14 24.13093 40.62550 18250 ft 385 kts 285°
2026-05-04 09:15 24.13870 40.59759 17711 ft 382 kts 285°
2026-05-04 09:15 24.14637 40.57000 17174 ft 380 kts 285°
2026-05-04 09:15 24.15404 40.54239 16640 ft 378 kts 285°
2026-05-04 09:15 24.16115 40.51466 16094 ft 375 kts 280°
2026-05-04 09:17 24.18553 40.31605 13990 ft 278 kts 275°
2026-05-04 09:18 24.18800 40.29533 13826 ft 271 kts 275°
2026-05-04 09:18 24.19044 40.27471 13444 ft 272 kts 275°
2026-05-04 09:18 24.19288 40.25421 13087 ft 272 kts 276°
2026-05-04 09:18 24.19529 40.23385 12770 ft 270 kts 276°
2026-05-04 09:19 24.19772 40.21336 12437 ft 269 kts 276°
2026-05-04 09:19 24.20011 40.19320 12140 ft 266 kts 276°
2026-05-04 09:19 24.20248 40.17318 12076 ft 267 kts 276°
2026-05-04 09:19 24.20486 40.15300 12066 ft 269 kts 276°
2026-05-04 09:20 24.20728 40.13249 12066 ft 268 kts 276°
2026-05-04 09:20 24.20966 40.11230 12067 ft 269 kts 276°
2026-05-04 09:20 24.21205 40.09199 12067 ft 268 kts 276°
2026-05-04 09:20 24.21445 40.07163 12069 ft 268 kts 276°
2026-05-04 09:21 24.21681 40.05154 12067 ft 268 kts 276°
2026-05-04 09:21 24.21920 40.03116 12067 ft 268 kts 276°
2026-05-04 09:21 24.22155 40.01105 12068 ft 269 kts 276°
2026-05-04 09:21 24.22397 39.99043 12069 ft 268 kts 276°
2026-05-04 09:22 24.22636 39.96998 12071 ft 269 kts 276°
2026-05-04 09:22 24.22874 39.94958 12075 ft 269 kts 276°
2026-05-04 09:22 24.23112 39.92921 12072 ft 269 kts 276°
2026-05-04 09:22 24.23490 39.90929 12064 ft 269 kts 292°
2026-05-04 09:23 24.24585 39.89239 12055 ft 273 kts 318°
2026-05-04 09:23 24.26230 39.88232 11811 ft 273 kts 340°
2026-05-04 09:23 24.28102 39.87729 11401 ft 276 kts 347°
2026-05-04 09:23 24.29974 39.87337 11138 ft 272 kts 347°
2026-05-04 09:25 24.42155 39.84795 11052 ft 249 kts 347°
2026-05-04 09:25 24.43844 39.84441 11052 ft 249 kts 347°
2026-05-04 09:26 24.45556 39.84082 11047 ft 249 kts 346°
2026-05-04 09:26 24.47265 39.83749 10991 ft 244 kts 349°
2026-05-04 09:26 24.48953 39.83478 10652 ft 246 kts 349°
2026-05-04 09:26 24.50633 39.83205 10402 ft 243 kts 349°
2026-05-04 09:27 24.52301 39.82927 10151 ft 241 kts 349°
2026-05-04 09:27 24.53947 39.82650 9876 ft 239 kts 349°
2026-05-04 09:27 24.55598 39.82371 9594 ft 238 kts 349°
2026-05-04 09:27 24.57239 39.82095 9323 ft 237 kts 349°
2026-05-04 09:28 24.58865 39.81821 9049 ft 236 kts 349°
2026-05-04 09:28 24.60493 39.81711 8773 ft 236 kts
2026-05-04 09:28 24.62140 39.81825 8489 ft 236 kts
2026-05-04 09:28 24.63789 39.81961 8235 ft 234 kts
2026-05-04 09:29 24.65415 39.82090 7912 ft 235 kts
2026-05-04 09:29 24.67042 39.82217 7650 ft 233 kts
2026-05-04 09:29 24.68663 39.82343 7500 ft 231 kts
2026-05-04 09:29 24.70277 39.82468 7394 ft 231 kts
2026-05-04 09:30 24.71872 39.82591 7287 ft 231 kts
2026-05-04 09:30 24.73477 39.82716 7193 ft 230 kts
2026-05-04 09:30 24.75086 39.82841 7094 ft 230 kts
2026-05-04 09:30 24.76674 39.82964 6987 ft 230 kts
2026-05-04 09:31 24.78278 39.83088 6876 ft 228 kts
2026-05-04 09:31 24.79860 39.83211 6769 ft 229 kts
2026-05-04 09:31 24.81457 39.83335 6672 ft 228 kts
2026-05-04 09:31 24.83042 39.83458 6575 ft 228 kts
2026-05-04 09:32 24.84629 39.83581 6496 ft 226 kts
2026-05-04 09:32 24.86221 39.83705 6480 ft 228 kts
2026-05-04 09:34 24.94635 39.80130 6485 ft 203 kts 280°
2026-05-04 09:34 24.94783 39.78565 6488 ft 204 kts 277°
2026-05-04 09:34 24.94888 39.77013 6494 ft 204 kts 276°
2026-05-04 09:34 24.94778 39.75451 6490 ft 207 kts 254°
2026-05-04 09:35 24.94017 39.74094 6483 ft 213 kts 226°
2026-05-04 09:35 24.92715 39.73282 6470 ft 220 kts 197°
2026-05-04 09:35 24.91189 39.73054 6472 ft 223 kts 187°
2026-05-04 09:35 24.89650 39.72938 6474 ft 222 kts 186°
2026-05-04 09:37 24.78781 39.72087 6470 ft 221 kts 187°
2026-05-04 09:37 24.77225 39.71961 6356 ft 225 kts 186°
2026-05-04 09:38 24.75664 39.71835 6012 ft 229 kts 186°
2026-05-04 09:38 24.74058 39.71705 5670 ft 232 kts 186°
2026-05-04 09:38 24.72429 39.71575 5343 ft 233 kts 186°
2026-05-04 09:38 24.70817 39.71446 5116 ft 230 kts 186°
2026-05-04 09:39 24.69270 39.71333 5051 ft 214 kts 186°
2026-05-04 09:39 24.67814 39.71230 4978 ft 207 kts 186°
2026-05-04 09:39 24.66338 39.71120 4414 ft 218 kts 186°
2026-05-04 09:39 24.64844 39.71012 3922 ft 209 kts 186°
2026-05-04 09:40 24.63429 39.70911 3600 ft 195 kts 186°
2026-05-04 09:40 24.62126 39.70815 3341 ft 181 kts 186°
2026-05-04 09:40 24.60915 39.70727 3112 ft 170 kts 186°
2026-05-04 09:40 24.59794 39.70648 2926 ft 162 kts 185°
2026-05-04 09:41 24.58672 39.70604 2637 ft 155 kts 186°
2026-05-04 09:42 24.54254 39.70289 2086 ft 14 kts 110°
2026-05-04 09:43 24.54237 39.70404 2085 ft 15 kts 99°
2026-05-04 09:43 24.54178 39.70507 2083 ft 17 kts 142°
2026-05-04 09:43 24.54064 39.70570 2081 ft 18 kts 153°
2026-05-04 09:43 24.53946 39.70644 2077 ft 20 kts 150°
2026-05-04 09:44 24.53825 39.70721 2072 ft 18 kts 150°
2026-05-04 09:44 24.53762 39.70833 2070 ft 18 kts 90°
2026-05-04 09:44 24.53781 39.70968 2069 ft 17 kts 79°
2026-05-04 09:46 24.54152 39.71264 2081 ft 13 kts 349°
2026-05-04 09:46 24.54253 39.71243 2084 ft 16 kts 349°
2026-05-04 09:46 24.54377 39.71216 2088 ft 20 kts 349°
2026-05-04 09:47 24.54533 39.71183 2090 ft 25 kts 349°
2026-05-04 09:47 24.54669 39.71154 2093 ft 17 kts 349°
2026-05-04 09:49 24.55003 39.71315 2111 ft 2 kts 43°
2026-05-04 09:49 24.55011 39.71346 2113 ft 5 kts 78°
2026-05-04 09:49 24.55014 39.71363 2114 ft 0 kts 78°